Gold Coast Seaway Observation History
Time Wind Speed Temp Pressure Rel. Hum Rain
29/08:30am NW 8-12 kts 25.5°c 1013.8 hPa 56% 0.0mm
29/08:00am NW 8-13 kts 24.8°c 1014.0 hPa 58% 0.0mm
29/07:30am NW 9-14 kts 23.8°c 1014.1 hPa 61% 0.0mm
29/07:00am NW 10-14 kts 23.3°c 1014.1 hPa 64% 0.0mm
29/06:30am NW 8-13 kts 22.5°c 1014.0 hPa 69% 0.0mm
29/06:00am NW 9-15 kts 21.8°c 1013.7 hPa 73% 0.0mm
29/05:30am NW 8-12 kts 21.2°c 1013.4 hPa 77% 0.0mm
29/05:00am NW 7-11 kts 20.9°c 1013.3 hPa 79% 0.0mm
29/04:30am NW 6-10 kts 21.1°c 1013.0 hPa 80% 0.0mm
29/04:00am NNW 5-7 kts 21.2°c 1012.8 hPa 80% 0.0mm
29/03:30am NW 5-9 kts 21.5°c 1012.8 hPa 79% 0.0mm
29/03:00am NW 5-9 kts 21.6°c 1012.8 hPa 78% 0.0mm
29/02:30am NNW 5-7 kts 21.8°c 1012.9 hPa 77% 0.0mm
29/02:00am NNW 5-7 kts 22.0°c 1013.2 hPa 77% 0.0mm
29/01:30am NNW 5-8 kts 22.4°c 1013.4 hPa 76% 0.0mm
29/01:00am N 7-10 kts 22.0°c 1013.6 hPa 78% 0.0mm
29/12:30am N 6-10 kts 22.6°c 1013.9 hPa 76% 0.0mm
29/12:00am N 7-12 kts 22.7°c 1014.3 hPa 74% 0.0mm
Time Wind Speed Temp Pressure Rel. Hum Rain
28/11:30pm N 7-12 kts 22.6°c 1014.7 hPa 74% 0.0mm
28/11:00pm N 7-10 kts 22.4°c 1014.8 hPa 75% 0.0mm
28/10:30pm N 6-8 kts 22.4°c 1014.8 hPa 74% 0.0mm
28/10:00pm N 6-11 kts 22.4°c 1015.0 hPa 74% 0.0mm
28/09:30pm NNW 5-7 kts 22.5°c 1015.1 hPa 74% 0.0mm
28/09:00pm N 6-9 kts 22.7°c 1014.9 hPa 72% 0.0mm
28/08:30pm N 7-12 kts 22.8°c 1014.6 hPa 71% 0.0mm
28/08:00pm NNW 7-11 kts 23.0°c 1014.6 hPa 70% 0.0mm
28/07:30pm N 7-12 kts 22.9°c 1014.3 hPa 69% 0.0mm
28/07:00pm N 10-16 kts 23.4°c 1014.1 hPa 73% 0.0mm
28/06:30pm NNE 12-16 kts 23.5°c 1014.0 hPa 72% 0.0mm
28/06:00pm NNE 13-17 kts 23.9°c 1013.5 hPa 70% 0.0mm
28/05:30pm NNE 12-16 kts 24.7°c 1013.3 hPa 68% 0.0mm
28/05:00pm NNE 12-17 kts 25.3°c 1013.2 hPa 62% 0.0mm
28/04:30pm NNE 12-17 kts 25.9°c 1013.3 hPa 62% 0.0mm
28/04:00pm NNE 12-17 kts 26.3°c 1013.4 hPa 60% 0.0mm
28/03:30pm NNE 13-18 kts 26.8°c 1013.4 hPa 57% 0.0mm
28/03:00pm NNE 13-18 kts 27.8°c 1013.8 hPa 56% 0.0mm
28/02:30pm NNE 13-18 kts 27.8°c 1014.1 hPa 53% 0.0mm
28/02:00pm NNE 14-19 kts 28.5°c 1014.3 hPa 53% 0.0mm
28/01:30pm NNE 15-19 kts 28.4°c 1014.5 hPa 52% 0.0mm
28/01:00pm NNE 13-17 kts 28.5°c 1014.9 hPa 51% 0.0mm
28/12:30pm NNE 13-17 kts 28.7°c 1015.3 hPa 52% 0.0mm
28/12:00pm NE 13-17 kts 27.9°c 1015.6 hPa 50% 0.0mm
28/11:30am NE 13-16 kts 28.2°c 1015.9 hPa 52% 0.0mm
28/11:00am NNE 12-16 kts 28.2°c 1016.2 hPa 49% 0.0mm
28/10:30am NE 13-15 kts 28.1°c 1016.4 hPa 51% 0.0mm
28/10:00am NE 11-13 kts 27.8°c 1016.9 hPa 50% 0.0mm
28/09:30am NE 10-12 kts 27.1°c 1017.2 hPa 52% 0.0mm
28/09:00am NNE 8-11 kts 27.2°c 1017.4 hPa 50% 0.0mm
28/08:30am NNE 5-7 kts 26.1°c 1017.6 hPa 54% 0.0mm
28/08:00am NW 7-9 kts 24.4°c 1017.5 hPa 57% 0.0mm
28/07:30am NW 5-7 kts 23.5°c 1017.5 hPa 60% 0.0mm
28/07:00am WNW 4-6 kts 22.9°c 1017.4 hPa 63% 0.0mm
28/06:30am WNW 4-5 kts 22.1°c 1017.3 hPa 69% 0.0mm
28/06:00am WSW 4-5 kts 21.0°c 1017.1 hPa 75% 0.0mm
28/05:30am SW 4-5 kts 19.8°c 1016.9 hPa 84% 0.0mm
28/05:00am CALM 0 kts 18.6°c 1016.7 hPa 83% 0.0mm
28/04:30am WSW 2-4 kts 18.9°c 1016.7 hPa 81% 0.0mm
28/04:00am SW 4-5 kts 19.3°c 1016.5 hPa 81% 0.0mm
28/03:30am SW 4-5 kts 19.6°c 1016.4 hPa 80% 0.0mm
28/03:00am WSW 4-5 kts 20.3°c 1016.4 hPa 78% 0.0mm
28/02:30am NNE 4-5 kts 20.5°c 1016.5 hPa 73% 0.0mm
28/02:00am NNE 5-6 kts 20.8°c 1016.6 hPa 72% 0.0mm
28/01:30am NE 5-8 kts 21.0°c 1016.8 hPa 71% 0.0mm
28/01:00am NE 7-8 kts 21.6°c 1017.2 hPa 71% 0.0mm
28/12:30am ENE 7-9 kts 21.8°c 1017.4 hPa 70% 0.0mm
28/12:00am ENE 8-10 kts 21.8°c 1017.7 hPa 73% 0.0mm
Time Wind Speed Temp Pressure Rel. Hum Rain
27/11:30pm ENE 6-7 kts 21.8°c 1018.2 hPa 75% 0.0mm
27/11:00pm ENE 6-8 kts 22.0°c 1018.4 hPa 74% 0.0mm
27/10:30pm ENE 8-10 kts 22.3°c 1018.4 hPa 74% 0.0mm
27/10:00pm ENE 8-10 kts 22.3°c 1018.7 hPa 74% 0.0mm
27/09:30pm ENE 6-9 kts 22.4°c 1018.7 hPa 77% 0.0mm
27/09:00pm ENE 4-5 kts 22.2°c 1018.6 hPa 76% 0.0mm
27/08:30pm ENE 6-7 kts 22.3°c 1018.4 hPa 76% 0.0mm
27/08:00pm E 6-7 kts 22.5°c 1018.4 hPa 75% 0.0mm
27/07:30pm ESE 7-8 kts 22.5°c 1018.3 hPa 73% 0.0mm
27/07:00pm E 7-9 kts 23.0°c 1018.1 hPa 74% 0.0mm
27/06:30pm E 8-9 kts 23.0°c 1017.8 hPa 71% 0.0mm
27/06:00pm E 10-11 kts 23.5°c 1017.5 hPa 70% 0.0mm
27/05:30pm E 10-11 kts 24.1°c 1017.3 hPa 67% 0.0mm
27/05:00pm E 11-13 kts 24.4°c 1017.1 hPa 61% 0.0mm
27/04:30pm E 11-12 kts 24.9°c 1017.0 hPa 62% 0.0mm
27/04:00pm E 11-12 kts 25.1°c 1016.5 hPa 60% 0.0mm
27/03:30pm E 10-13 kts 25.7°c 1016.4 hPa 56% 0.0mm
27/03:00pm E 11-13 kts 25.6°c 1016.6 hPa 58% 0.0mm
27/02:30pm E 11-12 kts 26.0°c 1016.8 hPa 57% 0.0mm
27/02:00pm E 11-13 kts 25.9°c 1017.1 hPa 56% 0.0mm
27/01:30pm E 11-14 kts 26.2°c 1017.3 hPa 56% 0.0mm
27/01:00pm E 11-13 kts 25.9°c 1017.5 hPa 58% 0.0mm
27/12:30pm E 11-12 kts 26.0°c 1017.7 hPa 58% 0.0mm
27/12:00pm E 10-12 kts 26.4°c 1018.0 hPa 61% 0.0mm
27/11:30am E 12-13 kts 26.3°c 1018.2 hPa 61% 0.0mm
27/11:00am E 11-13 kts 26.4°c 1018.3 hPa 63% 0.0mm
27/10:30am ESE 9-12 kts 26.5°c 1018.6 hPa 64% 0.0mm
27/10:00am SE 9-10 kts 25.6°c 1018.6 hPa 64% 0.0mm
27/09:30am SE 7-8 kts 25.1°c 1018.6 hPa 64% 0.0mm
27/09:00am SE 5-7 kts 25.7°c 1018.4 hPa 64% 0.0mm
27/08:30am SSE 6-7 kts 25.5°c 1018.3 hPa 65% 0.0mm
27/08:00am SSE 5-7 kts 25.3°c 1018.0 hPa 68% 0.0mm
27/07:30am SSE 5-6 kts 24.4°c 1017.6 hPa 68% 0.0mm
27/07:00am SE 5 kts 23.6°c 1017.1 hPa 71% 0.0mm
27/06:30am SSE 3-4 kts 23.1°c 1016.5 hPa 73% 0.0mm
27/06:00am SW 3-4 kts 21.3°c 1016.2 hPa 77% 0.0mm
27/05:30am WSW 3-5 kts 20.3°c 1016.0 hPa 82% 0.0mm
27/05:00am WSW 4-5 kts 19.6°c 1015.7 hPa 83% 0.0mm
27/04:30am SW 4-5 kts 19.5°c 1015.1 hPa 82% 0.0mm
27/04:00am SW 5-6 kts 19.8°c 1014.8 hPa 82% 0.0mm
27/03:30am SW 5-6 kts 19.9°c 1014.6 hPa 81% 0.0mm
27/03:00am SW 5-7 kts 19.9°c 1014.3 hPa 81% 0.0mm
27/02:30am SW 5-6 kts 20.2°c 1014.4 hPa 80% 0.0mm
27/02:00am SW 4-5 kts 20.5°c 1014.4 hPa 79% 0.0mm
27/01:30am SW 4-5 kts 20.3°c 1014.3 hPa 80% 0.0mm
27/01:00am SW 4-5 kts 20.4°c 1014.6 hPa 80% 0.0mm
27/12:30am SW 4-6 kts 20.1°c 1014.8 hPa 81% 0.0mm
27/12:00am WSW 3-4 kts 20.2°c 1014.9 hPa 80% 0.0mm